Location: Deurze
(52.9838°N, 6.6090°E)
Time: 19:35:04
(UTC+00:00)

Cosmos 1842 Rocket - Pass Details

Date: 11 March 2026
Orbit: 598 x 626 km, 82.5° (Epoch: 20 April)

Event Time Altitude Azimuth Distance (km) Brightness Sun altitude
Rises 19:24:28 0° 346° (NNW) 2,877 7.4 -17.7°
Reaches altitude 10° 19:26:42 10° 344° (NNW) 1,964 6.6 -18.1°
Maximum altitude 19:31:00 64° 263° (W) 670 3.9 -18.7°
Drops below altitude 10° 19:35:14 10° 182° (S) 1,938 5.9 -19.3°
Enters shadow 19:35:25 - 182° (S) 2,009 6.0 -19.3°
